{"data":{"norad_id":69815,"epoch":"2026-09-20T04:44:47.320224Z","epoch_age_seconds":47775,"freshness":"FRESH","line1":"1 69815U 26153R   26263.19776991  .00000223  00000+0  11670-3 0  9998","line2":"2 69815  88.9977 351.4118 0006369   1.8563 358.2644 14.10942616 11052","mean_motion":14.10942616,"eccentricity":0.0006369,"inclination_deg":88.9977,"raan_deg":351.4118,"arg_perigee_deg":1.8563,"mean_anomaly_deg":358.2644,"bstar":0.0001167,"rev_number":1105,"period_min":102.05943060125,"perigee_km":851.5403701562,"apogee_km":860.75540224424,"semimajor_km":7234.2848862002,"source":"CELESTRAK","updated_at":"2026-09-20T09:00:25.123481Z"}}